TimeCDT,TemperatureF,Dew PointF,Humidity,Sea Level PressureIn,VisibilityMPH,Wind Direction,Wind SpeedMPH,Gust SpeedMPH,PrecipitationIn,Events,Conditions,WindDirDegrees,DateUTC
12:09 AM,62.6,59.0,88,29.94,3.0,NW,8.1,-,0.02,Rain,Light Rain,310,2013-09-29 05:09:00
12:30 AM,60.8,59.0,94,29.95,2.5,NW,8.1,-,0.04,Rain,Rain,320,2013-09-29 05:30:00
12:53 AM,55.9,54.0,93,29.97,2.5,NNW,15.0,21.9,0.10,Rain,Rain,330,2013-09-29 05:53:00
12:58 AM,55.4,53.6,94,29.97,3.0,NW,12.7,23.0,0.01,Rain,Light Rain,320,2013-09-29 05:58:00
1:53 AM,55.9,53.1,90,29.98,7.0,NW,3.5,-,0.05,Rain,Light Rain,320,2013-09-29 06:53:00
2:53 AM,55.9,53.1,90,29.99,10.0,WNW,5.8,-,0.01,,Mostly Cloudy,300,2013-09-29 07:53:00
3:53 AM,53.1,51.1,93,29.99,10.0,WNW,4.6,-,N/A,,Clear,290,2013-09-29 08:53:00
4:28 AM,50.0,48.2,94,30.01,1.8,WNW,4.6,-,N/A,,Clear,290,2013-09-29 09:28:00
4:43 AM,51.8,48.2,88,30.01,3.0,WNW,4.6,-,N/A,,Clear,290,2013-09-29 09:43:00
4:53 AM,51.1,50.0,96,30.01,4.0,WNW,3.5,-,N/A,,Clear,290,2013-09-29 09:53:00
4:58 AM,50.0,48.2,94,30.01,1.8,Calm,Calm,-,N/A,,Clear,0,2013-09-29 09:58:00
5:20 AM,48.2,46.4,93,30.02,0.5,Calm,Calm,-,N/A,Fog,Fog,0,2013-09-29 10:20:00
5:28 AM,48.2,46.4,93,30.02,0.2,West,3.5,-,N/A,Fog,Fog,280,2013-09-29 10:28:00
5:53 AM,48.9,46.9,93,30.02,0.5,WNW,3.5,-,N/A,Fog,Fog,290,2013-09-29 10:53:00
6:17 AM,50.0,48.2,94,30.03,1.5,WNW,3.5,-,N/A,,Clear,290,2013-09-29 11:17:00
6:53 AM,48.9,48.0,97,30.03,10.0,West,3.5,-,N/A,,Clear,280,2013-09-29 11:53:00
7:53 AM,52.0,51.1,97,30.04,10.0,WNW,4.6,-,N/A,,Clear,300,2013-09-29 12:53:00
8:53 AM,55.9,52.0,87,30.05,10.0,NW,8.1,-,N/A,,Clear,310,2013-09-29 13:53:00
9:53 AM,59.0,51.1,75,30.07,10.0,North,5.8,-,N/A,,Clear,360,2013-09-29 14:53:00
10:53 AM,63.0,50.0,63,30.07,10.0,North,4.6,-,N/A,,Clear,360,2013-09-29 15:53:00
11:53 AM,66.0,46.0,48,30.07,10.0,NE,5.8,-,N/A,,Clear,40,2013-09-29 16:53:00
12:53 PM,68.0,44.1,42,30.06,10.0,ENE,9.2,-,N/A,,Clear,60,2013-09-29 17:53:00
1:53 PM,68.0,44.1,42,30.04,10.0,East,6.9,-,N/A,,Clear,90,2013-09-29 18:53:00
2:53 PM,66.9,45.0,45,30.03,10.0,ENE,11.5,-,N/A,,Clear,70,2013-09-29 19:53:00
3:53 PM,66.0,44.1,45,30.03,10.0,East,9.2,-,N/A,,Clear,90,2013-09-29 20:53:00
4:53 PM,64.9,44.1,47,30.03,10.0,East,9.2,-,N/A,,Clear,100,2013-09-29 21:53:00
5:53 PM,62.1,46.9,58,30.03,10.0,ESE,8.1,-,N/A,,Clear,110,2013-09-29 22:53:00
6:53 PM,59.0,46.9,64,30.02,10.0,SE,3.5,-,N/A,,Clear,140,2013-09-29 23:53:00
7:53 PM,51.1,46.0,83,30.03,10.0,Calm,Calm,-,N/A,,Clear,0,2013-09-30 00:53:00
8:53 PM,48.9,46.9,93,30.03,10.0,Calm,Calm,-,N/A,,Clear,0,2013-09-30 01:53:00
9:53 PM,48.0,46.0,93,30.03,10.0,Calm,Calm,-,N/A,,Clear,0,2013-09-30 02:53:00
10:53 PM,46.9,46.0,97,30.02,8.0,Calm,Calm,-,N/A,,Clear,0,2013-09-30 03:53:00
11:53 PM,46.0,45.0,96,30.02,8.0,Calm,Calm,-,N/A,,Clear,0,2013-09-30 04:53:00